• In Austria
  • List of Countries
  • For 7 days
  • Water Temperature
  • Satellite Maps
  • Weather Map
  • News
  • Weather Widgets
  • user-avatar
    Login

    Hourly Weather Wojcieszyn

    Today, 19 September, Wednesday

    Time Temperature Precipitation Wind Pressure Humidity
    00:00 +19°C° 0 mm 3 mps 755 mmHg 70%
    01:00 +18°C° 0 mm 3 mps 755 mmHg 71%
    02:00 +18°C° 0 mm 3 mps 755 mmHg 71%
    03:00 +18°C° 0 mm 3 mps 755 mmHg 71%
    04:00 +17°C° 0 mm 3 mps 755 mmHg 71%
    05:00 +18°C° 0 mm 3 mps 755 mmHg 68%
    06:00 +19°C° 0 mm 3 mps 755 mmHg 65%
    07:00 +19°C° 0 mm 3 mps 755 mmHg 61%
    08:00 +21°C° 0 mm 3 mps 755 mmHg 56%
    09:00 +24°C° 0 mm 3 mps 755 mmHg 51%
    10:00 +26°C° 0 mm 4 mps 755 mmHg 47%
    11:00 +27°C° 0 mm 4 mps 755 mmHg 44%
    12:00 +28°C° 0 mm 4 mps 755 mmHg 42%
    13:00 +29°C° 0 mm 4 mps 755 mmHg 39%
    14:00 +29°C° 0 mm 4 mps 755 mmHg 41%
    15:00 +29°C° 0 mm 3 mps 755 mmHg 43%
    16:00 +29°C° 0 mm 3 mps 755 mmHg 44%
    17:00 +27°C° 0 mm 2 mps 755 mmHg 49%
    18:00 +25°C° 0 mm 2 mps 755 mmHg 54%
    19:00 +23°C° 0 mm 2 mps 755 mmHg 59%
    20:00 +21°C° 0 mm 2 mps 755 mmHg 61%
    21:00 +21°C° 0 mm 2 mps 755 mmHg 63%
    22:00 +20°C° 0 mm 2 mps 756 mmHg 66%
    23:00 +20°C° 0 mm 2 mps 756 mmHg 68%

    Tomorrow, 20 September, Thursday

    Time Temperature Precipitation Wind Pressure Humidity
    00:00 +19°C° 0 mm 2 mps 756 mmHg 70%
    01:00 +19°C° 0 mm 2 mps 756 mmHg 72%
    02:00 +19°C° 0 mm 2 mps 756 mmHg 74%
    03:00 +18°C° 0 mm 2 mps 756 mmHg 76%
    04:00 +18°C° 0 mm 2 mps 756 mmHg 78%
    05:00 +19°C° 0 mm 2 mps 756 mmHg 76%
    06:00 +19°C° 0 mm 2 mps 756 mmHg 74%
    07:00 +20°C° 0 mm 2 mps 756 mmHg 72%
    08:00 +23°C° 0 mm 2 mps 756 mmHg 66%
    09:00 +25°C° 0 mm 2 mps 756 mmHg 59%
    10:00 +27°C° 0 mm 2 mps 756 mmHg 53%
    11:00 +28°C° 0 mm 2 mps 756 mmHg 49%
    12:00 +29°C° 0 mm 2 mps 756 mmHg 46%
    13:00 +30°C° 0 mm 3 mps 756 mmHg 43%
    14:00 +30°C° 0 mm 2 mps 755 mmHg 43%
    15:00 +30°C° 0 mm 2 mps 755 mmHg 44%
    16:00 +29°C° 0 mm 2 mps 755 mmHg 45%
    17:00 +28°C° 0 mm 2 mps 755 mmHg 50%
    18:00 +26°C° 0 mm 2 mps 755 mmHg 55%
    19:00 +24°C° 0 mm 2 mps 755 mmHg 59%
    20:00 +23°C° 0 mm 2 mps 755 mmHg 61%
    21:00 +23°C° 0 mm 2 mps 755 mmHg 62%
    22:00 +21°C° 0 mm 2 mps 755 mmHg 64%
    23:00 +20°C° 0 mm 2 mps 755 mmHg 64%

    Day after tomorrow, 21 September, Friday

    Time Temperature Precipitation Wind Pressure Humidity
    00:00 +20°C° 0 mm 2 mps 755 mmHg 64%
    01:00 +19°C° 0 mm 2 mps 755 mmHg 65%
    02:00 +19°C° 0 mm 2 mps 755 mmHg 64%
    03:00 +19°C° 0 mm 3 mps 755 mmHg 64%
    04:00 +18°C° 0 mm 3 mps 754 mmHg 64%
    05:00 +19°C° 0 mm 3 mps 754 mmHg 63%
    06:00 +19°C° 0 mm 3 mps 754 mmHg 62%
    07:00 +19°C° 0 mm 3 mps 754 mmHg 61%
    08:00 +21°C° 0 mm 4 mps 754 mmHg 56%
    09:00 +23°C° 0 mm 4 mps 753 mmHg 51%
    10:00 +26°C° 0 mm 5 mps 753 mmHg 46%
    11:00 +27°C° 0 mm 5 mps 752 mmHg 42%
    12:00 +28°C° 0 mm 5 mps 752 mmHg 39%
    13:00 +29°C° 0 mm 6 mps 751 mmHg 36%
    14:00 +29°C° 0 mm 5 mps 751 mmHg 38%
    15:00 +28°C° 0 mm 5 mps 750 mmHg 39%
    16:00 +28°C° 0 mm 5 mps 750 mmHg 41%
    17:00 +27°C° 0 mm 5 mps 749 mmHg 44%
    18:00 +25°C° 0 mm 5 mps 749 mmHg 47%
    19:00 +23°C° 0 mm 5 mps 749 mmHg 50%
    20:00 +23°C° 0 mm 5 mps 749 mmHg 49%
    21:00 +23°C° 0 mm 6 mps 749 mmHg 48%
    22:00 +23°C° 0 mm 6 mps 749 mmHg 47%
    23:00 +22°C° 0 mm 6 mps 749 mmHg 54%

    22 September, Saturday

    Time Temperature Precipitation Wind Pressure Humidity
    00:00 +21°C° 0 mm 6 mps 750 mmHg 61%
    01:00 +20°C° 0 mm 6 mps 750 mmHg 69%
    02:00 +19°C° 0 mm 5 mps 751 mmHg 67%
    03:00 +17°C° 0 mm 5 mps 752 mmHg 66%
    04:00 +15°C° 0 mm 5 mps 752 mmHg 65%
    05:00 +14°C° 0.3 mm 5 mps 753 mmHg 67%
    06:00 +14°C° 0.3 mm 4 mps 753 mmHg 70%
    07:00 +13°C° 0.3 mm 4 mps 754 mmHg 73%
    08:00 +13°C° 0.4 mm 4 mps 754 mmHg 75%
    09:00 +12°C° 0.4 mm 4 mps 754 mmHg 76%
    10:00 +12°C° 0.4 mm 4 mps 755 mmHg 78%
    11:00 +12°C° 0.7 mm 4 mps 755 mmHg 77%
    12:00 +12°C° 0.7 mm 5 mps 755 mmHg 77%
    13:00 +12°C° 0.7 mm 5 mps 755 mmHg 76%
    14:00 +12°C° 0.4 mm 5 mps 755 mmHg 76%
    15:00 +12°C° 0.4 mm 5 mps 755 mmHg 75%
    16:00 +12°C° 0.4 mm 5 mps 754 mmHg 75%
    17:00 +12°C° 0.1 mm 5 mps 754 mmHg 76%
    18:00 +10°C° 0.1 mm 5 mps 754 mmHg 78%
    19:00 +11°C° 0.1 mm 4 mps 754 mmHg 79%
    20:00 +11°C° 0 mm 4 mps 754 mmHg 79%
    21:00 +10°C° 0 mm 4 mps 754 mmHg 79%
    22:00 +10°C° 0 mm 4 mps 754 mmHg 78%
    23:00 +10°C° 0 mm 4 mps 754 mmHg 78%

    23 September, Sunday

    Time Temperature Precipitation Wind Pressure Humidity
    00:00 +9°C° 0 mm 3 mps 754 mmHg 78%
    01:00 +9°C° 0 mm 3 mps 754 mmHg 78%
    02:00 +9°C° 0 mm 3 mps 755 mmHg 78%
    03:00 +8°C° 0 mm 3 mps 755 mmHg 78%
    04:00 +8°C° 0 mm 3 mps 755 mmHg 79%
    05:00 +9°C° 0 mm 3 mps 755 mmHg 77%
    06:00 +8°C° 0 mm 4 mps 755 mmHg 75%
    07:00 +10°C° 0 mm 4 mps 755 mmHg 73%
    08:00 +11°C° 0 mm 4 mps 755 mmHg 65%
    09:00 +13°C° 0 mm 5 mps 755 mmHg 57%
    10:00 +15°C° 0 mm 5 mps 755 mmHg 49%
    11:00 +15°C° 0 mm 5 mps 755 mmHg 47%
    12:00 +16°C° 0 mm 5 mps 754 mmHg 44%
    13:00 +17°C° 0 mm 5 mps 753 mmHg 42%
    14:00 +18°C° 0 mm 4 mps 753 mmHg 43%
    15:00 +18°C° 0 mm 4 mps 752 mmHg 44%
    16:00 +18°C° 0 mm 3 mps 752 mmHg 45%
    17:00 +16°C° 0 mm 3 mps 751 mmHg 49%
    18:00 +14°C° 0 mm 4 mps 751 mmHg 52%
    19:00 +13°C° 0 mm 4 mps 750 mmHg 55%
    20:00 +13°C° 0 mm 5 mps 749 mmHg 55%
    21:00 +13°C° 0 mm 5 mps 748 mmHg 55%
    22:00 +13°C° 0 mm 6 mps 747 mmHg 55%
    23:00 +14°C° 0.2 mm 7 mps 746 mmHg 57%

    24 September, Monday

    Time Temperature Precipitation Wind Pressure Humidity
    00:00 +14°C° 0.2 mm 7 mps 745 mmHg 59%
    01:00 +14°C° 0.2 mm 7 mps 745 mmHg 61%
    02:00 +13°C° 2.4 mm 6 mps 744 mmHg 68%
    03:00 +12°C° 2.4 mm 5 mps 744 mmHg 75%
    04:00 +12°C° 2.4 mm 4 mps 743 mmHg 81%
    05:00 +12°C° 0.5 mm 4 mps 742 mmHg 80%
    06:00 +13°C° 0.5 mm 5 mps 742 mmHg 79%
    07:00 +13°C° 0.5 mm 5 mps 741 mmHg 78%
    08:00 +13°C° 0.1 mm 5 mps 741 mmHg 79%
    09:00 +14°C° 0.1 mm 5 mps 741 mmHg 80%
    10:00 +14°C° 0.1 mm 5 mps 741 mmHg 81%
    11:00 +14°C° 0.1 mm 5 mps 742 mmHg 78%
    12:00 +14°C° 0.1 mm 5 mps 742 mmHg 76%
    13:00 +14°C° 0.1 mm 5 mps 742 mmHg 73%
    14:00 +14°C° 0.1 mm 5 mps 742 mmHg 72%
    15:00 +14°C° 0.1 mm 5 mps 742 mmHg 71%
    16:00 +14°C° 0.1 mm 5 mps 742 mmHg 71%
    17:00 +14°C° 0 mm 5 mps 742 mmHg 72%
    18:00 +13°C° 0 mm 5 mps 743 mmHg 74%
    19:00 +13°C° 0 mm 5 mps 743 mmHg 75%
    20:00 +11°C° 0.1 mm 6 mps 743 mmHg 74%
    21:00 +11°C° 0.1 mm 7 mps 744 mmHg 74%
    22:00 +10°C° 0.1 mm 7 mps 744 mmHg 73%
    23:00 +10°C° 0 mm 7 mps 745 mmHg 73%
    Show more